RYR3162 EGNX-GCLP

Flight info

Callsign RYR3162
Flight time 4h 18m
Altitude 23000
Route SAPCO Y53 DTY M605 SILVA/N0437F340 Q41 SAM/N0434F330 M195 LORKU DCT BALDA/N0441F350 DCT BATAX DCT PINOX DCT ODPAK DCT GUWEX DCT OSLAD UR724 IBALU UN857 TERTO
Aircraft B738/M-SDE2E3FGHIRWXY/LB1

Departure

Time 2026-05-06 04:58
Airport East Midlands Airport (EGNX)

Arrival

Time 2026-05-06 09:16
Airport Gran Canaria Airport (GCLP)
Time Latitude Longitude Altitude Speed Heading
2026-05-06 04:37 52.82826 -1.33294 302 ft 0 kts 358°
2026-05-06 04:50 52.82804 -1.33295 303 ft 4 kts 12°
2026-05-06 04:50 52.82781 -1.33312 302 ft 4 kts 51°
2026-05-06 04:50 52.82774 -1.33340 302 ft 0 kts 88°
2026-05-06 04:52 52.82774 -1.33316 302 ft 5 kts 88°
2026-05-06 04:53 52.82775 -1.33240 301 ft 7 kts 88°
2026-05-06 04:53 52.82790 -1.33169 300 ft 7 kts 29°
2026-05-06 04:53 52.82837 -1.33162 300 ft 7 kts 358°
2026-05-06 04:53 52.82887 -1.33165 300 ft 7 kts 358°
2026-05-06 04:54 52.82922 -1.33214 301 ft 7 kts 283°
2026-05-06 04:54 52.82923 -1.33293 304 ft 7 kts 269°
2026-05-06 04:54 52.82921 -1.33379 305 ft 10 kts 269°
2026-05-06 04:54 52.82919 -1.33532 306 ft 17 kts 267°
2026-05-06 04:55 52.82914 -1.33755 305 ft 21 kts 268°
2026-05-06 04:55 52.82910 -1.33988 302 ft 20 kts 268°
2026-05-06 04:55 52.82906 -1.34214 300 ft 19 kts 270°
2026-05-06 04:55 52.82907 -1.34432 304 ft 19 kts 267°
2026-05-06 04:56 52.82903 -1.34644 304 ft 18 kts 268°
2026-05-06 04:56 52.82901 -1.34797 305 ft 10 kts 268°
2026-05-06 04:56 52.82910 -1.34906 306 ft 10 kts 315°
2026-05-06 04:56 52.82975 -1.34936 304 ft 10 kts 356°
2026-05-06 04:57 52.83052 -1.34929 305 ft 12 kts 36°
2026-05-06 04:57 52.83064 -1.34796 301 ft 12 kts 88°
2026-05-06 04:57 52.83072 -1.34435 300 ft 63 kts 88°
2026-05-06 04:57 52.83092 -1.33358 309 ft 123 kts 88°
2026-05-06 04:58 52.83159 -1.31666 399 ft 163 kts 81°
2026-05-06 04:58 52.83268 -1.29796 1091 ft 166 kts 84°
2026-05-06 04:58 52.83245 -1.27898 1942 ft 163 kts 88°
2026-05-06 04:58 52.83169 -1.25991 2575 ft 169 kts 90°
2026-05-06 04:59 52.83017 -1.24036 3157 ft 177 kts 106°
2026-05-06 04:59 52.82303 -1.22288 3615 ft 197 kts 132°
2026-05-06 04:59 52.81262 -1.20630 3826 ft 218 kts 131°
2026-05-06 04:59 52.80152 -1.18776 4045 ft 234 kts 131°
2026-05-06 05:00 52.78988 -1.16825 4453 ft 243 kts 131°
2026-05-06 05:00 52.77670 -1.15023 4975 ft 253 kts 155°
2026-05-06 05:00 52.75885 -1.14579 5223 ft 273 kts 193°
2026-05-06 05:00 52.74213 -1.15987 5769 ft 273 kts 225°
2026-05-06 05:01 52.72824 -1.18124 6500 ft 274 kts 225°
2026-05-06 05:01 52.71377 -1.20193 7125 ft 278 kts 223°
2026-05-06 05:01 52.69872 -1.22231 7757 ft 281 kts 221°
2026-05-06 05:01 52.68340 -1.24256 8414 ft 284 kts 221°
2026-05-06 05:02 52.66784 -1.26293 9066 ft 287 kts 220°
2026-05-06 05:02 52.65212 -1.28339 9739 ft 289 kts 220°
2026-05-06 05:02 52.63621 -1.30404 10282 ft 295 kts 220°
2026-05-06 05:02 52.61954 -1.32568 10441 ft 315 kts 220°
2026-05-06 05:03 52.60175 -1.34855 10589 ft 334 kts 217°
2026-05-06 05:03 52.58018 -1.36528 10765 ft 354 kts 193°
2026-05-06 05:03 52.55542 -1.36607 11305 ft 361 kts 170°
2026-05-06 05:03 52.53149 -1.35336 11935 ft 364 kts 158°
2026-05-06 05:04 52.50830 -1.33746 12479 ft 369 kts 158°
2026-05-06 05:04 52.48426 -1.32052 13100 ft 373 kts 158°
2026-05-06 05:04 52.46033 -1.30370 13798 ft 375 kts 158°
2026-05-06 05:04 52.43625 -1.28698 14426 ft 377 kts 158°
2026-05-06 05:05 52.41225 -1.27049 15034 ft 380 kts 159°
2026-05-06 05:05 52.38739 -1.25357 15664 ft 383 kts 159°
2026-05-06 05:05 52.36269 -1.23684 16319 ft 385 kts 159°
2026-05-06 05:05 52.33783 -1.22006 16946 ft 388 kts 159°
2026-05-06 05:06 52.31310 -1.20340 17542 ft 391 kts 159°
2026-05-06 05:06 52.29606 -1.19193 17951 ft 393 kts 160°
2026-05-06 05:06 52.26238 -1.16928 18681 ft 397 kts 159°
2026-05-06 05:06 52.23678 -1.15207 19205 ft 400 kts 159°
2026-05-06 05:07 52.21096 -1.13476 19722 ft 402 kts 159°
2026-05-06 05:07 52.18495 -1.11756 20224 ft 405 kts 161°
2026-05-06 05:07 52.16684 -1.10811 20552 ft 405 kts 168°
2026-05-06 05:07 52.13913 -1.09887 21062 ft 407 kts 171°
2026-05-06 05:08 52.11120 -1.09054 21548 ft 410 kts 171°
2026-05-06 05:08 52.08304 -1.08203 22021 ft 413 kts 171°
2026-05-06 05:08 52.05473 -1.07313 22492 ft 416 kts 171°
2026-05-06 05:08 52.02622 -1.06392 22964 ft 419 kts 170°
2026-05-06 05:09 51.99761 -1.05459 23447 ft 421 kts 170°
2026-05-06 05:09 51.96882 -1.04509 23837 ft 424 kts 170°
2026-05-06 05:09 51.94043 -1.03563 24203 ft 426 kts 170°
2026-05-06 05:09 51.91115 -1.02589 24577 ft 428 kts 170°
2026-05-06 05:10 51.88188 -1.01620 24945 ft 431 kts 170°
2026-05-06 05:10 51.85222 -1.00927 25301 ft 431 kts 178°
2026-05-06 05:10 51.82223 -1.01020 25650 ft 432 kts 188°
2026-05-06 05:10 51.79256 -1.01776 26017 ft 432 kts 191°
2026-05-06 05:11 51.76289 -1.02615 26394 ft 434 kts 191°
2026-05-06 05:11 51.73303 -1.03448 26720 ft 436 kts 191°
2026-05-06 05:11 51.70302 -1.04255 27031 ft 439 kts 191°
2026-05-06 05:11 51.67275 -1.05044 27349 ft 441 kts 191°
2026-05-06 05:12 51.64236 -1.05826 27678 ft 443 kts 190°
2026-05-06 05:12 51.61190 -1.06629 27987 ft 445 kts 192°
2026-05-06 05:12 51.58170 -1.07765 28283 ft 446 kts 196°
2026-05-06 05:12 51.55177 -1.09123 28632 ft 447 kts 197°
2026-05-06 05:13 51.52195 -1.10489 29053 ft 446 kts 197°
2026-05-06 05:13 51.49197 -1.11803 29417 ft 446 kts 196°
2026-05-06 05:13 51.46195 -1.13084 29792 ft 446 kts 196°
2026-05-06 05:13 51.43202 -1.14368 30193 ft 445 kts 196°
2026-05-06 05:14 51.40216 -1.15654 30519 ft 444 kts 196°
2026-05-06 05:14 51.37227 -1.16942 30773 ft 445 kts 196°
2026-05-06 05:14 51.34230 -1.18228 31042 ft 446 kts 196°
2026-05-06 05:14 51.31233 -1.19504 31407 ft 443 kts 196°
2026-05-06 05:15 51.28276 -1.20759 31874 ft 439 kts 196°
2026-05-06 05:15 51.25315 -1.22017 32102 ft 441 kts 196°
2026-05-06 05:15 51.22343 -1.23279 32242 ft 444 kts 196°
2026-05-06 05:15 51.19349 -1.24548 32492 ft 445 kts 196°
2026-05-06 05:16 51.16364 -1.25803 32838 ft 443 kts 196°
2026-05-06 05:16 51.13381 -1.27050 33109 ft 443 kts 196°
2026-05-06 05:16 51.10393 -1.28297 33312 ft 445 kts 196°
2026-05-06 05:16 51.07400 -1.29545 33541 ft 445 kts 196°
2026-05-06 05:17 51.04401 -1.30795 33815 ft 445 kts 196°
2026-05-06 05:17 51.01405 -1.32043 34045 ft 446 kts 196°
2026-05-06 05:17 50.98401 -1.33294 34247 ft 446 kts 197°
2026-05-06 05:17 50.95472 -1.34857 34448 ft 444 kts 205°
2026-05-06 05:18 50.92757 -1.37138 34649 ft 442 kts 214°
2026-05-06 05:18 50.90196 -1.39831 34863 ft 441 kts 216°
2026-05-06 05:18 50.87654 -1.42550 35024 ft 442 kts 215°
2026-05-06 05:19 50.82522 -1.48001 35326 ft 444 kts 215°
2026-05-06 05:19 50.79947 -1.50701 35537 ft 444 kts 215°
2026-05-06 05:19 50.77368 -1.53385 35725 ft 444 kts 214°
2026-05-06 05:19 50.74788 -1.56059 35908 ft 444 kts 214°
2026-05-06 05:20 50.72198 -1.58737 35962 ft 446 kts 215°
2026-05-06 05:20 50.67001 -1.64103 35963 ft 445 kts 214°
2026-05-06 05:21 50.61842 -1.69417 35967 ft 441 kts 214°
2026-05-06 05:21 50.56717 -1.74684 35961 ft 438 kts 214°
2026-05-06 05:22 50.51619 -1.79906 35971 ft 436 kts 214°
2026-05-06 05:22 50.46529 -1.85072 35969 ft 435 kts 214°
2026-05-06 05:23 50.41406 -1.90257 35973 ft 442 kts 214°
2026-05-06 05:23 50.33576 -1.98169 35972 ft 450 kts 215°
2026-05-06 05:24 50.28290 -2.03489 35961 ft 453 kts 213°
2026-05-06 05:24 50.22987 -2.08801 35951 ft 450 kts 214°
2026-05-06 05:25 50.17725 -2.13932 35952 ft 443 kts 214°
2026-05-06 05:25 50.12491 -2.19006 35959 ft 443 kts 213°
2026-05-06 05:26 50.07292 -2.24049 35951 ft 443 kts 214°
2026-05-06 05:26 50.02063 -2.29119 35942 ft 443 kts 213°
2026-05-06 05:27 49.96816 -2.34189 35954 ft 444 kts 213°
2026-05-06 05:27 49.91421 -2.38922 35952 ft 447 kts 205°
2026-05-06 05:28 49.85682 -2.42720 35948 ft 450 kts 203°
2026-05-06 05:28 49.79885 -2.46428 35955 ft 452 kts 204°
2026-05-06 05:29 49.74078 -2.50202 35946 ft 453 kts 204°
2026-05-06 05:29 49.68268 -2.54022 35950 ft 454 kts 204°
2026-05-06 05:30 49.62461 -2.57848 35939 ft 454 kts 204°
2026-05-06 05:30 49.56653 -2.61668 35938 ft 453 kts 204°
2026-05-06 05:31 49.50903 -2.65437 35937 ft 452 kts 204°
2026-05-06 05:31 49.45127 -2.69213 35927 ft 450 kts 204°
2026-05-06 05:32 49.39366 -2.72969 35938 ft 449 kts 204°
2026-05-06 05:32 49.33622 -2.76705 35938 ft 448 kts 204°
2026-05-06 05:33 49.27882 -2.80428 35942 ft 448 kts 204°
2026-05-06 05:33 49.22140 -2.84143 35948 ft 448 kts 204°
2026-05-06 05:34 49.16397 -2.87850 35946 ft 448 kts 204°
2026-05-06 05:34 49.10647 -2.91551 35947 ft 449 kts 204°
2026-05-06 05:35 49.04891 -2.95247 35944 ft 449 kts 204°
2026-05-06 05:35 48.99122 -2.98943 35950 ft 450 kts 204°
2026-05-06 05:36 48.93346 -3.02633 35946 ft 450 kts 204°
2026-05-06 05:36 48.87566 -3.06317 35946 ft 451 kts 204°
2026-05-06 05:37 48.81767 -3.10003 35938 ft 452 kts 204°
2026-05-06 05:37 48.75966 -3.13681 35944 ft 452 kts 204°
2026-05-06 05:38 48.70153 -3.17359 35946 ft 453 kts 204°
2026-05-06 05:38 48.64332 -3.21031 35945 ft 454 kts 204°
2026-05-06 05:39 48.58503 -3.24699 35948 ft 454 kts 204°
2026-05-06 05:39 48.52673 -3.28359 35950 ft 454 kts 203°
2026-05-06 05:40 48.46835 -3.32015 35946 ft 454 kts 203°
2026-05-06 05:40 48.41004 -3.35657 35947 ft 454 kts 203°
2026-05-06 05:41 48.35177 -3.39287 35951 ft 453 kts 203°
2026-05-06 05:41 48.29359 -3.42903 35947 ft 452 kts 203°
2026-05-06 05:42 48.23582 -3.46486 35944 ft 452 kts 203°
2026-05-06 05:42 48.17768 -3.50081 35947 ft 452 kts 203°
2026-05-06 05:43 48.11959 -3.53666 35946 ft 451 kts 203°
2026-05-06 05:43 48.06151 -3.57240 35943 ft 451 kts 203°
2026-05-06 05:44 48.00337 -3.60809 35948 ft 452 kts 203°
2026-05-06 05:44 47.94525 -3.64369 35948 ft 452 kts 203°
2026-05-06 05:45 47.88709 -3.67923 35944 ft 452 kts 203°
2026-05-06 05:45 47.82885 -3.71472 35948 ft 452 kts 203°
2026-05-06 05:46 47.77060 -3.75014 35945 ft 453 kts 203°
2026-05-06 05:46 47.71226 -3.78553 35942 ft 453 kts 203°
2026-05-06 05:47 47.65378 -3.82092 35949 ft 454 kts 204°
2026-05-06 05:47 47.59524 -3.85629 35952 ft 455 kts 204°
2026-05-06 05:48 47.53644 -3.89169 35971 ft 457 kts 204°
2026-05-06 05:48 47.47744 -3.92711 35954 ft 458 kts 204°
2026-05-06 05:49 47.41832 -3.96254 35956 ft 459 kts 203°
2026-05-06 05:49 47.35909 -3.99791 35962 ft 459 kts 204°
2026-05-06 05:50 47.29982 -4.03328 35969 ft 459 kts 204°
2026-05-06 05:50 47.24051 -4.06856 35954 ft 460 kts 203°
2026-05-06 05:51 47.18124 -4.10373 35959 ft 459 kts 203°
2026-05-06 05:51 47.12239 -4.13853 35973 ft 458 kts 203°
2026-05-06 05:52 47.06281 -4.17372 35976 ft 458 kts 202°
2026-05-06 05:52 47.00411 -4.20830 35953 ft 458 kts 204°
2026-05-06 05:53 46.94504 -4.24303 35963 ft 458 kts 203°
2026-05-06 05:53 46.88592 -4.27765 35973 ft 457 kts 203°
2026-05-06 05:54 46.82683 -4.31223 35953 ft 458 kts 204°
2026-05-06 05:54 46.77727 -4.34118 35973 ft 458 kts 204°
2026-05-06 05:55 46.71803 -4.37572 35969 ft 458 kts 203°
2026-05-06 05:55 46.65877 -4.41016 35963 ft 459 kts 204°
2026-05-06 05:56 46.59978 -4.44430 35967 ft 460 kts 204°
2026-05-06 05:56 46.53994 -4.47893 35971 ft 460 kts 203°
2026-05-06 05:57 46.48089 -4.51303 35969 ft 460 kts 203°
2026-05-06 05:57 46.42142 -4.54723 35966 ft 460 kts 202°
2026-05-06 05:58 46.36193 -4.58133 35991 ft 459 kts 202°
2026-05-06 05:58 46.30209 -4.61559 35978 ft 459 kts 202°
2026-05-06 05:59 46.24267 -4.64960 35964 ft 459 kts 203°
2026-05-06 05:59 46.18367 -4.68328 35974 ft 459 kts 202°
2026-05-06 06:00 46.12424 -4.71708 35990 ft 459 kts 202°
2026-05-06 06:00 46.06477 -4.75083 35969 ft 459 kts 202°
2026-05-06 06:01 46.00529 -4.78449 35983 ft 459 kts 203°
2026-05-06 06:01 45.94579 -4.81810 35987 ft 459 kts 202°
2026-05-06 06:02 45.88632 -4.85163 35978 ft 459 kts 202°
2026-05-06 06:02 45.82683 -4.88507 35978 ft 459 kts 202°
2026-05-06 06:03 45.76736 -4.91844 35981 ft 459 kts 202°
2026-05-06 06:03 45.70787 -4.95174 35978 ft 459 kts 202°
2026-05-06 06:04 45.64841 -4.98495 35979 ft 459 kts 202°
2026-05-06 06:04 45.58893 -5.01809 35986 ft 459 kts 202°
2026-05-06 06:05 45.52906 -5.05138 35995 ft 459 kts 202°
2026-05-06 06:05 45.46997 -5.08415 35986 ft 459 kts 202°
2026-05-06 06:06 45.41048 -5.11707 35994 ft 458 kts 202°
2026-05-06 06:06 45.35099 -5.14992 35991 ft 458 kts 202°
2026-05-06 06:07 45.29152 -5.18268 35990 ft 458 kts 202°
2026-05-06 06:07 45.23208 -5.21535 35989 ft 458 kts 202°
2026-05-06 06:08 45.17263 -5.24796 35991 ft 458 kts 202°
2026-05-06 06:08 45.11321 -5.28047 35995 ft 458 kts 202°
2026-05-06 06:09 45.05379 -5.31291 35995 ft 457 kts 202°
2026-05-06 06:09 44.99444 -5.34525 35992 ft 457 kts 202°
2026-05-06 06:10 44.93515 -5.37747 35990 ft 456 kts 202°
2026-05-06 06:10 44.87589 -5.40962 35997 ft 456 kts 202°
2026-05-06 06:11 44.81676 -5.44162 35996 ft 455 kts 203°
2026-05-06 06:11 44.75767 -5.47353 35996 ft 455 kts 202°
2026-05-06 06:12 44.69863 -5.50535 35997 ft 454 kts 202°
2026-05-06 06:12 44.63964 -5.53707 35995 ft 454 kts 202°
2026-05-06 06:13 44.58005 -5.56645 35997 ft 454 kts 198°
2026-05-06 06:13 44.51901 -5.58973 36003 ft 455 kts 196°
2026-05-06 06:14 44.45777 -5.61217 36000 ft 455 kts 197°
2026-05-06 06:14 44.39667 -5.63509 36009 ft 455 kts 197°
2026-05-06 06:15 44.33561 -5.65835 36008 ft 455 kts 197°
2026-05-06 06:15 44.27460 -5.68169 36006 ft 455 kts 197°
2026-05-06 06:16 44.21358 -5.70497 36014 ft 454 kts 197°
2026-05-06 06:16 44.15257 -5.72820 36010 ft 454 kts 197°
2026-05-06 06:17 44.09160 -5.75134 36015 ft 454 kts 197°
2026-05-06 06:17 44.03058 -5.77446 36022 ft 454 kts 198°
2026-05-06 06:18 43.96958 -5.79751 36026 ft 455 kts 197°
2026-05-06 06:18 43.90850 -5.82056 36018 ft 455 kts 197°
2026-05-06 06:19 43.84742 -5.84355 36012 ft 455 kts 198°
2026-05-06 06:19 43.78629 -5.86651 36019 ft 455 kts 198°
2026-05-06 06:20 43.72556 -5.88927 36018 ft 455 kts 198°
2026-05-06 06:20 43.66439 -5.91215 36011 ft 455 kts 198°
2026-05-06 06:21 43.60325 -5.93496 36013 ft 455 kts 198°
2026-05-06 06:21 43.54215 -5.95772 36024 ft 455 kts 198°
2026-05-06 06:22 43.48108 -5.98042 36015 ft 454 kts 198°
2026-05-06 06:22 43.42005 -6.00305 36026 ft 454 kts 198°
2026-05-06 06:23 43.35913 -6.02560 36025 ft 453 kts 198°
2026-05-06 06:23 43.29825 -6.04809 36033 ft 453 kts 198°
2026-05-06 06:24 43.23743 -6.07050 36025 ft 452 kts 198°
2026-05-06 06:24 43.17676 -6.09281 36029 ft 451 kts 198°
2026-05-06 06:25 43.11626 -6.11502 36036 ft 450 kts 198°
2026-05-06 06:26 43.02562 -6.14821 36050 ft 449 kts 198°
2026-05-06 06:26 42.96520 -6.17028 36055 ft 449 kts 198°
2026-05-06 06:27 42.90478 -6.19230 36061 ft 449 kts 198°
2026-05-06 06:27 42.84436 -6.21428 36036 ft 450 kts 198°
2026-05-06 06:28 42.78391 -6.23621 36052 ft 449 kts 198°
2026-05-06 06:28 42.72395 -6.25793 36058 ft 448 kts 198°
2026-05-06 06:29 42.66367 -6.27973 36052 ft 448 kts 198°
2026-05-06 06:29 42.60345 -6.30146 36060 ft 448 kts 198°
2026-05-06 06:30 42.54324 -6.32314 36061 ft 448 kts 198°
2026-05-06 06:30 42.48300 -6.34478 36048 ft 447 kts 198°
2026-05-06 06:31 42.42246 -6.36650 36047 ft 447 kts 198°
2026-05-06 06:31 42.36279 -6.38785 36054 ft 446 kts 198°
2026-05-06 06:32 42.30277 -6.40930 36051 ft 446 kts 198°
2026-05-06 06:32 42.24269 -6.43072 36049 ft 447 kts 198°
2026-05-06 06:33 42.18264 -6.45209 36042 ft 446 kts 198°
2026-05-06 06:33 42.12269 -6.47337 36046 ft 446 kts 198°
2026-05-06 06:34 42.06224 -6.49370 36332 ft 448 kts 197°
2026-05-06 06:34 42.03196 -6.50347 36565 ft 447 kts 197°
2026-05-06 06:34 42.00171 -6.51317 36779 ft 446 kts 197°
2026-05-06 06:34 41.97158 -6.52286 37023 ft 445 kts 197°
2026-05-06 06:35 41.94136 -6.53262 37028 ft 448 kts 197°
2026-05-06 06:35 41.88067 -6.55230 37036 ft 448 kts 197°
2026-05-06 06:36 41.82043 -6.57184 37037 ft 444 kts 197°
2026-05-06 06:36 41.76064 -6.59122 37035 ft 440 kts 197°
2026-05-06 06:37 41.70127 -6.61044 37032 ft 438 kts 197°
2026-05-06 06:37 41.64217 -6.62953 37039 ft 437 kts 197°
2026-05-06 06:38 41.58304 -6.64861 37033 ft 437 kts 197°
2026-05-06 06:38 41.52382 -6.66768 37046 ft 438 kts 197°
2026-05-06 06:39 41.47445 -6.68354 37037 ft 440 kts 197°
2026-05-06 06:39 41.41486 -6.70265 37050 ft 441 kts 197°
2026-05-06 06:40 41.35506 -6.72179 37027 ft 443 kts 197°
2026-05-06 06:40 41.29512 -6.74094 37043 ft 443 kts 197°
2026-05-06 06:41 41.23506 -6.76008 37040 ft 444 kts 197°
2026-05-06 06:41 41.17494 -6.77921 37033 ft 444 kts 197°
2026-05-06 06:42 41.11492 -6.79827 37026 ft 443 kts 197°
2026-05-06 06:42 41.05505 -6.81725 37036 ft 442 kts 197°
2026-05-06 06:43 40.99577 -6.83600 37048 ft 440 kts 197°
2026-05-06 06:43 40.93623 -6.85481 37041 ft 439 kts 197°
2026-05-06 06:44 40.87692 -6.87351 37044 ft 437 kts 197°
2026-05-06 06:44 40.81772 -6.89214 37041 ft 437 kts 197°
2026-05-06 06:45 40.75861 -6.91072 37046 ft 437 kts 197°
2026-05-06 06:45 40.69947 -6.92926 37033 ft 437 kts 197°
2026-05-06 06:46 40.64036 -6.94777 37045 ft 436 kts 197°
2026-05-06 06:46 40.58124 -6.96624 37037 ft 437 kts 197°
2026-05-06 06:47 40.52206 -6.98469 37041 ft 437 kts 197°
2026-05-06 06:47 40.46288 -7.00311 37045 ft 437 kts 197°
2026-05-06 06:48 40.40361 -7.02153 37041 ft 438 kts 197°
2026-05-06 06:48 40.34428 -7.03993 37029 ft 438 kts 197°
2026-05-06 06:49 40.28493 -7.05831 37031 ft 438 kts 197°
2026-05-06 06:49 40.22563 -7.07663 37023 ft 438 kts 197°
2026-05-06 06:50 40.16632 -7.09492 37031 ft 437 kts 197°
2026-05-06 06:50 40.10718 -7.11313 37023 ft 436 kts 197°
2026-05-06 06:51 40.04817 -7.13127 37030 ft 435 kts 197°
2026-05-06 06:51 39.98930 -7.14933 37035 ft 434 kts 197°
2026-05-06 06:52 39.93060 -7.16731 37018 ft 433 kts 197°
2026-05-06 06:52 39.87202 -7.18522 37020 ft 432 kts 197°
2026-05-06 06:53 39.81360 -7.20305 37023 ft 431 kts 197°
2026-05-06 06:53 39.75530 -7.22082 37026 ft 430 kts 197°
2026-05-06 06:54 39.69709 -7.23852 37016 ft 429 kts 197°
2026-05-06 06:54 39.63895 -7.25618 37024 ft 429 kts 197°
2026-05-06 06:55 39.58076 -7.27382 37022 ft 430 kts 197°
2026-05-06 06:55 39.52256 -7.29143 37024 ft 430 kts 197°
2026-05-06 06:56 39.46435 -7.30902 37030 ft 430 kts 197°
2026-05-06 06:56 39.40606 -7.32660 37023 ft 430 kts 197°
2026-05-06 06:57 39.34812 -7.34404 37026 ft 431 kts 197°
2026-05-06 06:57 39.28976 -7.36157 37019 ft 430 kts 198°
2026-05-06 06:58 39.23141 -7.37908 37020 ft 431 kts 198°
2026-05-06 06:58 39.17299 -7.39658 37025 ft 431 kts 198°
2026-05-06 06:59 39.11461 -7.41403 37004 ft 431 kts 198°
2026-05-06 06:59 39.05625 -7.43144 37017 ft 430 kts 198°
2026-05-06 07:00 38.99802 -7.44879 37025 ft 429 kts 198°
2026-05-06 07:00 38.93986 -7.46609 37029 ft 428 kts 198°
2026-05-06 07:01 38.88187 -7.48331 37005 ft 428 kts 198°
2026-05-06 07:01 38.82399 -7.50047 37021 ft 426 kts 198°
2026-05-06 07:02 38.76627 -7.51755 37030 ft 425 kts 198°
2026-05-06 07:02 38.70871 -7.53456 37019 ft 424 kts 198°
2026-05-06 07:03 38.65127 -7.55150 37020 ft 423 kts 198°
2026-05-06 07:03 38.59393 -7.56839 37018 ft 423 kts 198°
2026-05-06 07:04 38.53667 -7.58523 37020 ft 422 kts 198°
2026-05-06 07:04 38.47947 -7.60202 37031 ft 422 kts 198°
2026-05-06 07:05 38.42226 -7.61879 37030 ft 422 kts 198°
2026-05-06 07:05 38.36508 -7.63552 37027 ft 422 kts 198°
2026-05-06 07:06 38.30780 -7.65226 37028 ft 422 kts 198°
2026-05-06 07:06 38.25050 -7.66897 37027 ft 423 kts 198°
2026-05-06 07:07 38.19312 -7.68568 37029 ft 423 kts 198°
2026-05-06 07:07 38.13567 -7.70238 37025 ft 424 kts 198°
2026-05-06 07:08 38.07851 -7.71897 37021 ft 424 kts 198°
2026-05-06 07:08 38.02095 -7.73565 37029 ft 425 kts 198°
2026-05-06 07:09 37.96331 -7.75232 37026 ft 425 kts 198°
2026-05-06 07:09 37.90573 -7.76895 37027 ft 424 kts 198°
2026-05-06 07:10 37.84823 -7.78553 37028 ft 423 kts 198°
2026-05-06 07:10 37.79087 -7.80204 37026 ft 423 kts 198°
2026-05-06 07:11 37.73359 -7.81851 37028 ft 422 kts 198°
2026-05-06 07:11 37.67641 -7.83491 37020 ft 421 kts 198°
2026-05-06 07:12 37.61942 -7.85124 37025 ft 419 kts 198°
2026-05-06 07:12 37.56259 -7.86750 37028 ft 419 kts 198°
2026-05-06 07:13 37.50580 -7.88373 37028 ft 418 kts 198°
2026-05-06 07:13 37.44917 -7.89988 36991 ft 417 kts 198°
2026-05-06 07:14 37.39262 -7.91598 37013 ft 416 kts 198°
2026-05-06 07:14 37.33617 -7.93203 37017 ft 415 kts 198°
2026-05-06 07:15 37.27983 -7.94803 37023 ft 415 kts 198°
2026-05-06 07:15 37.22352 -7.96399 37008 ft 415 kts 198°
2026-05-06 07:16 37.16759 -7.97982 36988 ft 415 kts 198°
2026-05-06 07:16 37.11134 -7.99572 36994 ft 414 kts 198°
2026-05-06 07:17 37.05508 -8.01160 36989 ft 415 kts 198°
2026-05-06 07:17 36.99885 -8.02744 36998 ft 414 kts 198°
2026-05-06 07:18 36.94260 -8.04326 36980 ft 414 kts 198°
2026-05-06 07:18 36.88645 -8.05903 36996 ft 414 kts 198°
2026-05-06 07:19 36.83030 -8.07478 36996 ft 413 kts 198°
2026-05-06 07:19 36.77417 -8.09050 37001 ft 413 kts 198°
2026-05-06 07:20 36.71805 -8.10619 36999 ft 413 kts 198°
2026-05-06 07:20 36.66193 -8.12186 36995 ft 413 kts 198°
2026-05-06 07:21 36.60588 -8.13748 36999 ft 413 kts 198°
2026-05-06 07:21 36.54982 -8.15309 37001 ft 413 kts 198°
2026-05-06 07:22 36.49375 -8.16868 37003 ft 413 kts 198°
2026-05-06 07:22 36.43770 -8.18423 37001 ft 412 kts 198°
2026-05-06 07:23 36.38170 -8.19975 37003 ft 412 kts 198°
2026-05-06 07:23 36.32574 -8.21524 37000 ft 412 kts 198°
2026-05-06 07:24 36.26981 -8.23069 37001 ft 412 kts 198°
2026-05-06 07:24 36.21389 -8.24612 36984 ft 412 kts 198°
2026-05-06 07:25 36.15800 -8.26152 36996 ft 411 kts 198°
2026-05-06 07:25 36.10254 -8.27679 37003 ft 411 kts 198°
2026-05-06 07:26 36.04671 -8.29213 37003 ft 411 kts 198°
2026-05-06 07:26 35.99086 -8.30745 37002 ft 411 kts 198°
2026-05-06 07:27 35.93522 -8.32335 36993 ft 409 kts 200°
2026-05-06 07:27 35.87998 -8.34106 37011 ft 412 kts 200°
2026-05-06 07:28 35.83311 -8.35628 37017 ft 419 kts 200°
2026-05-06 07:28 35.74777 -8.38353 37013 ft 425 kts 200°
2026-05-06 07:29 35.69058 -8.40158 36994 ft 421 kts 200°
2026-05-06 07:29 35.63438 -8.41925 37003 ft 415 kts 200°
2026-05-06 07:30 35.57850 -8.43686 37012 ft 414 kts 200°
2026-05-06 07:30 35.52264 -8.45445 37012 ft 415 kts 200°
2026-05-06 07:31 35.46673 -8.47203 37010 ft 415 kts 200°
2026-05-06 07:31 35.41077 -8.48959 37008 ft 415 kts 200°
2026-05-06 07:32 35.35507 -8.50704 37009 ft 416 kts 200°
2026-05-06 07:32 35.29895 -8.52459 37003 ft 417 kts 200°
2026-05-06 07:33 35.24276 -8.54214 37009 ft 417 kts 200°
2026-05-06 07:33 35.18652 -8.55969 36993 ft 417 kts 200°
2026-05-06 07:34 35.13022 -8.57722 37007 ft 417 kts 200°
2026-05-06 07:34 35.07399 -8.59471 37010 ft 417 kts 200°
2026-05-06 07:35 35.01775 -8.61217 37008 ft 417 kts 200°
2026-05-06 07:35 34.96151 -8.62962 37006 ft 417 kts 200°
2026-05-06 07:36 34.90533 -8.64701 37008 ft 416 kts 200°
2026-05-06 07:36 34.84927 -8.66435 37004 ft 416 kts 200°
2026-05-06 07:37 34.79324 -8.68166 37009 ft 415 kts 200°
2026-05-06 07:37 34.73726 -8.69892 37007 ft 415 kts 200°
2026-05-06 07:38 34.68163 -8.71606 37009 ft 415 kts 200°
2026-05-06 07:38 34.62566 -8.73328 37006 ft 415 kts 200°
2026-05-06 07:39 34.56967 -8.75048 37008 ft 415 kts 200°
2026-05-06 07:39 34.51368 -8.76766 37009 ft 415 kts 200°
2026-05-06 07:40 34.45834 -8.78700 37003 ft 410 kts 208°
2026-05-06 07:40 34.40957 -8.82109 36988 ft 402 kts 221°
2026-05-06 07:41 34.36595 -8.86341 37013 ft 402 kts 222°
2026-05-06 07:41 34.32227 -8.90575 37009 ft 403 kts 221°
2026-05-06 07:42 34.27840 -8.94800 37014 ft 403 kts 221°
2026-05-06 07:42 34.23470 -8.98990 37013 ft 404 kts 221°
2026-05-06 07:43 34.19063 -9.03206 37013 ft 404 kts 221°
2026-05-06 07:43 34.14651 -9.07420 37014 ft 404 kts 221°
2026-05-06 07:44 34.10239 -9.11629 37011 ft 404 kts 221°
2026-05-06 07:44 34.05826 -9.15833 37017 ft 404 kts 221°
2026-05-06 07:45 34.01410 -9.20034 37015 ft 404 kts 221°
2026-05-06 07:45 33.96995 -9.24229 37018 ft 404 kts 221°
2026-05-06 07:46 33.92576 -9.28421 37020 ft 404 kts 221°
2026-05-06 07:46 33.88158 -9.32607 37019 ft 404 kts 221°
2026-05-06 07:47 33.83742 -9.36786 37010 ft 404 kts 221°
2026-05-06 07:47 33.79328 -9.40956 37017 ft 403 kts 221°
2026-05-06 07:48 33.74919 -9.45117 37020 ft 403 kts 221°
2026-05-06 07:48 33.70505 -9.49277 37018 ft 403 kts 221°
2026-05-06 07:49 33.66096 -9.53427 37022 ft 403 kts 221°
2026-05-06 07:49 33.61678 -9.57579 37022 ft 403 kts 221°
2026-05-06 07:50 33.57258 -9.61727 37005 ft 403 kts 221°
2026-05-06 07:50 33.52869 -9.65841 37018 ft 403 kts 221°
2026-05-06 07:51 33.48452 -9.69976 37030 ft 403 kts 221°
2026-05-06 07:51 33.44030 -9.74110 37029 ft 403 kts 221°
2026-05-06 07:52 33.39606 -9.78240 37029 ft 403 kts 221°
2026-05-06 07:52 33.35182 -9.82366 37030 ft 403 kts 221°
2026-05-06 07:53 33.30752 -9.86491 37027 ft 404 kts 221°
2026-05-06 07:53 33.26322 -9.90611 37025 ft 403 kts 221°
2026-05-06 07:54 33.21893 -9.94724 37030 ft 403 kts 221°
2026-05-06 07:54 33.17464 -9.98832 37032 ft 403 kts 221°
2026-05-06 07:55 33.13034 -10.02936 37030 ft 403 kts 221°
2026-05-06 07:55 33.08601 -10.07038 37033 ft 403 kts 221°
2026-05-06 07:56 33.04173 -10.11131 37031 ft 403 kts 221°
2026-05-06 07:56 32.99742 -10.15217 37028 ft 403 kts 221°
2026-05-06 07:57 32.95340 -10.19269 37028 ft 403 kts 221°
2026-05-06 07:57 32.90907 -10.23345 37027 ft 403 kts 221°
2026-05-06 07:58 32.86455 -10.27436 37188 ft 406 kts 221°
2026-05-06 07:58 32.84224 -10.29483 37475 ft 404 kts 221°
2026-05-06 07:58 32.82008 -10.31515 37796 ft 401 kts 221°
2026-05-06 07:59 32.79801 -10.33536 38045 ft 400 kts 221°
2026-05-06 07:59 32.77599 -10.35554 38232 ft 400 kts 221°
2026-05-06 07:59 32.75400 -10.37568 38429 ft 399 kts 221°
2026-05-06 07:59 32.73203 -10.39578 38653 ft 398 kts 221°
2026-05-06 08:00 32.71014 -10.41579 38873 ft 395 kts 221°
2026-05-06 08:00 32.68845 -10.43560 39025 ft 394 kts 221°
2026-05-06 08:00 32.64475 -10.47552 39034 ft 398 kts 221°
2026-05-06 08:01 32.60094 -10.51546 39032 ft 396 kts 221°
2026-05-06 08:01 32.55725 -10.55525 39032 ft 395 kts 221°
2026-05-06 08:02 32.51366 -10.59488 39027 ft 395 kts 221°
2026-05-06 08:02 32.47005 -10.63450 39035 ft 395 kts 221°
2026-05-06 08:03 32.42641 -10.67409 39012 ft 395 kts 221°
2026-05-06 08:03 32.38279 -10.71361 39026 ft 395 kts 221°
2026-05-06 08:04 32.33917 -10.75308 39036 ft 395 kts 221°
2026-05-06 08:04 32.29551 -10.79254 39044 ft 395 kts 221°
2026-05-06 08:05 32.25189 -10.83192 39033 ft 395 kts 221°
2026-05-06 08:05 32.20827 -10.87124 39035 ft 394 kts 221°
2026-05-06 08:06 32.16493 -10.91027 39035 ft 394 kts 221°
2026-05-06 08:06 32.12136 -10.94945 39026 ft 393 kts 221°
2026-05-06 08:07 32.07787 -10.98851 39034 ft 392 kts 221°
2026-05-06 08:07 32.03444 -11.02748 39037 ft 392 kts 221°
2026-05-06 08:08 31.99108 -11.06633 39035 ft 391 kts 221°
2026-05-06 08:08 31.94772 -11.10514 39035 ft 391 kts 221°
2026-05-06 08:09 31.90441 -11.14386 39033 ft 391 kts 221°
2026-05-06 08:09 31.86107 -11.18256 39035 ft 391 kts 221°
2026-05-06 08:10 31.81779 -11.22116 39025 ft 390 kts 221°
2026-05-06 08:10 31.77458 -11.25966 39030 ft 389 kts 221°
2026-05-06 08:11 31.73145 -11.29804 39032 ft 389 kts 221°
2026-05-06 08:11 31.68839 -11.33641 39027 ft 389 kts 221°
2026-05-06 08:12 31.64531 -11.37475 39035 ft 389 kts 221°
2026-05-06 08:12 31.60215 -11.41314 39035 ft 390 kts 221°
2026-05-06 08:13 31.55883 -11.45162 39035 ft 391 kts 220°
2026-05-06 08:13 31.51544 -11.49011 39019 ft 392 kts 221°
2026-05-06 08:14 31.47201 -11.52859 39030 ft 391 kts 221°
2026-05-06 08:14 31.42855 -11.56704 39026 ft 391 kts 221°
2026-05-06 08:15 31.38518 -11.60538 39028 ft 390 kts 221°
2026-05-06 08:15 31.34217 -11.64335 39029 ft 390 kts 221°
2026-05-06 08:16 31.29891 -11.68150 39026 ft 389 kts 221°
2026-05-06 08:16 31.25576 -11.71951 38995 ft 388 kts 221°
2026-05-06 08:17 31.21281 -11.75728 39023 ft 385 kts 221°
2026-05-06 08:17 31.17013 -11.79479 39025 ft 383 kts 221°
2026-05-06 08:18 31.13479 -11.82581 39024 ft 381 kts 221°
2026-05-06 08:18 31.09247 -11.86292 39027 ft 380 kts 221°
2026-05-06 08:19 31.05032 -11.89984 39029 ft 378 kts 221°
2026-05-06 08:19 31.00831 -11.93660 39029 ft 377 kts 221°
2026-05-06 08:20 30.96636 -11.97328 39031 ft 377 kts 221°
2026-05-06 08:20 30.92440 -12.00990 39016 ft 376 kts 221°
2026-05-06 08:21 30.88255 -12.04640 39038 ft 376 kts 221°
2026-05-06 08:21 30.84068 -12.08287 39036 ft 376 kts 221°
2026-05-06 08:22 30.79872 -12.11938 39029 ft 377 kts 221°
2026-05-06 08:22 30.75667 -12.15593 39029 ft 378 kts 221°
2026-05-06 08:23 30.71447 -12.19257 39029 ft 379 kts 221°
2026-05-06 08:23 30.67216 -12.22926 39034 ft 380 kts 221°
2026-05-06 08:24 30.62978 -12.26597 39018 ft 380 kts 220°
2026-05-06 08:24 30.58750 -12.30256 39023 ft 379 kts 220°
2026-05-06 08:25 30.54529 -12.33905 39026 ft 377 kts 220°
2026-05-06 08:25 30.50325 -12.37534 39028 ft 376 kts 220°
2026-05-06 08:26 30.46130 -12.41140 39029 ft 375 kts 220°
2026-05-06 08:26 30.41941 -12.44734 39032 ft 374 kts 220°
2026-05-06 08:27 30.37753 -12.48325 39034 ft 375 kts 220°
2026-05-06 08:27 30.33585 -12.51897 39020 ft 375 kts 220°
2026-05-06 08:28 30.29391 -12.55487 39022 ft 375 kts 220°
2026-05-06 08:28 30.25193 -12.59078 39028 ft 375 kts 220°
2026-05-06 08:29 30.20993 -12.62665 39033 ft 375 kts 220°
2026-05-06 08:29 30.16794 -12.66249 39027 ft 375 kts 220°
2026-05-06 08:30 30.12597 -12.69827 39036 ft 375 kts 220°
2026-05-06 08:30 30.08404 -12.73400 39030 ft 375 kts 220°
2026-05-06 08:31 30.04216 -12.76980 39029 ft 374 kts 220°
2026-05-06 08:31 30.00027 -12.80561 39040 ft 375 kts 220°
2026-05-06 08:32 29.95834 -12.84140 39030 ft 375 kts 220°
2026-05-06 08:32 29.91629 -12.87726 39030 ft 376 kts 220°
2026-05-06 08:33 29.87415 -12.91316 39031 ft 377 kts 220°
2026-05-06 08:33 29.83187 -12.94913 39031 ft 378 kts 220°
2026-05-06 08:34 29.76824 -13.00320 39031 ft 379 kts 220°
2026-05-06 08:35 29.72576 -13.03924 39026 ft 379 kts 220°
2026-05-06 08:35 29.68336 -13.07517 39025 ft 378 kts 220°
2026-05-06 08:36 29.64109 -13.11096 39032 ft 377 kts 220°
2026-05-06 08:36 29.59899 -13.14656 39023 ft 375 kts 220°
2026-05-06 08:37 29.55697 -13.18207 39031 ft 374 kts 220°
2026-05-06 08:37 29.51504 -13.21747 39032 ft 374 kts 220°
2026-05-06 08:38 29.47307 -13.25285 39035 ft 374 kts 220°
2026-05-06 08:38 29.43107 -13.28823 39023 ft 375 kts 220°
2026-05-06 08:39 29.38933 -13.32335 39034 ft 375 kts 220°
2026-05-06 08:39 29.34728 -13.35870 39036 ft 375 kts 220°
2026-05-06 08:40 29.30520 -13.39403 39039 ft 375 kts 220°
2026-05-06 08:40 29.26310 -13.42935 39036 ft 375 kts 220°
2026-05-06 08:41 29.22101 -13.46463 39012 ft 375 kts 220°
2026-05-06 08:41 29.17903 -13.49977 39033 ft 374 kts 220°
2026-05-06 08:42 29.13815 -13.53666 38703 ft 380 kts 223°
2026-05-06 08:42 29.11833 -13.55641 38348 ft 375 kts 224°
2026-05-06 08:42 29.09889 -13.57600 37951 ft 369 kts 224°
2026-05-06 08:42 29.07977 -13.59525 37533 ft 364 kts 224°
2026-05-06 08:43 29.06087 -13.61418 37168 ft 359 kts 224°
2026-05-06 08:43 29.04220 -13.63277 36821 ft 353 kts 224°
2026-05-06 08:43 29.02377 -13.65106 36444 ft 349 kts 224°
2026-05-06 08:43 29.00556 -13.66908 36092 ft 344 kts 224°
2026-05-06 08:44 28.98759 -13.68683 35741 ft 340 kts 224°
2026-05-06 08:44 28.96979 -13.70439 35366 ft 336 kts 224°
2026-05-06 08:44 28.95220 -13.72173 35028 ft 332 kts 224°
2026-05-06 08:44 28.93500 -13.73868 34676 ft 329 kts 224°
2026-05-06 08:45 28.91754 -13.75586 34332 ft 325 kts 223°
2026-05-06 08:45 28.90049 -13.77264 33969 ft 321 kts 224°
2026-05-06 08:45 28.88394 -13.78892 33645 ft 316 kts 224°
2026-05-06 08:45 28.86735 -13.80523 33293 ft 313 kts 224°
2026-05-06 08:46 28.85074 -13.82154 32959 ft 309 kts 224°
2026-05-06 08:46 28.83477 -13.83722 32643 ft 305 kts 224°
2026-05-06 08:46 28.81877 -13.85293 32292 ft 302 kts 224°
2026-05-06 08:46 28.80297 -13.86844 31999 ft 298 kts 224°
2026-05-06 08:47 28.78737 -13.88374 31681 ft 295 kts 224°
2026-05-06 08:47 28.77191 -13.89890 31383 ft 292 kts 224°
2026-05-06 08:47 28.75658 -13.91394 31064 ft 289 kts 224°
2026-05-06 08:47 28.74138 -13.92883 30763 ft 287 kts 224°
2026-05-06 08:48 28.72634 -13.94356 30452 ft 284 kts 224°
2026-05-06 08:48 28.71141 -13.95817 30162 ft 282 kts 224°
2026-05-06 08:48 28.69662 -13.97265 29839 ft 279 kts 224°
2026-05-06 08:48 28.68196 -13.98700 29533 ft 277 kts 224°
2026-05-06 08:49 28.66723 -14.00141 29236 ft 284 kts 224°
2026-05-06 08:49 28.65185 -14.01650 28898 ft 300 kts 224°
2026-05-06 08:49 28.63580 -14.03221 28536 ft 305 kts 224°
2026-05-06 08:49 28.61977 -14.04785 28208 ft 301 kts 224°
2026-05-06 08:50 28.60393 -14.06329 27871 ft 298 kts 224°
2026-05-06 08:50 28.58824 -14.07858 27532 ft 296 kts 224°
2026-05-06 08:50 28.57272 -14.09370 27220 ft 292 kts 224°
2026-05-06 08:50 28.55731 -14.10873 26881 ft 291 kts 224°
2026-05-06 08:51 28.54203 -14.12362 26559 ft 288 kts 224°
2026-05-06 08:51 28.52684 -14.13842 26242 ft 287 kts 224°
2026-05-06 08:51 28.51170 -14.15317 25932 ft 287 kts 224°
2026-05-06 08:51 28.49656 -14.16792 25608 ft 287 kts 224°
2026-05-06 08:52 28.48132 -14.18277 25329 ft 292 kts 224°
2026-05-06 08:52 28.46564 -14.19805 25024 ft 300 kts 224°
2026-05-06 08:52 28.44977 -14.21349 24692 ft 300 kts 224°
2026-05-06 08:52 28.43390 -14.22890 24335 ft 300 kts 223°
2026-05-06 08:53 28.41804 -14.24429 24004 ft 299 kts 223°
2026-05-06 08:53 28.40221 -14.25966 23669 ft 299 kts 223°
2026-05-06 08:53 28.38661 -14.27477 23319 ft 298 kts 223°
2026-05-06 08:53 28.37089 -14.29001 22955 ft 297 kts 223°
2026-05-06 08:54 28.35522 -14.30519 22630 ft 296 kts 223°
2026-05-06 08:54 28.33954 -14.32038 22310 ft 298 kts 223°
2026-05-06 08:54 28.32360 -14.33584 21991 ft 304 kts 223°
2026-05-06 08:54 28.30737 -14.35156 21666 ft 308 kts 223°
2026-05-06 08:55 28.29103 -14.36738 21323 ft 309 kts 223°
2026-05-06 08:55 28.27469 -14.38318 20990 ft 308 kts 223°
2026-05-06 08:55 28.25837 -14.39895 20658 ft 308 kts 223°
2026-05-06 08:55 28.24205 -14.41473 20330 ft 308 kts 224°
2026-05-06 08:56 28.22574 -14.43048 20003 ft 307 kts 224°
2026-05-06 08:56 28.20953 -14.44614 19673 ft 305 kts 224°
2026-05-06 08:56 28.19344 -14.46166 19350 ft 303 kts 224°
2026-05-06 08:56 28.17744 -14.47711 19018 ft 301 kts 224°
2026-05-06 08:57 28.16153 -14.49245 18709 ft 299 kts 224°
2026-05-06 08:57 28.14574 -14.50768 18397 ft 298 kts 224°
2026-05-06 08:57 28.13001 -14.52285 18051 ft 296 kts 224°
2026-05-06 08:57 28.11436 -14.53793 17706 ft 294 kts 224°
2026-05-06 08:58 28.09884 -14.55288 17376 ft 292 kts 224°
2026-05-06 08:58 28.08341 -14.56774 17059 ft 290 kts 224°
2026-05-06 08:58 28.06811 -14.58247 16742 ft 288 kts 224°
2026-05-06 08:58 28.05287 -14.59715 16440 ft 287 kts 223°
2026-05-06 08:59 28.03767 -14.61177 16135 ft 286 kts 223°
2026-05-06 08:59 28.02250 -14.62636 15832 ft 286 kts 223°
2026-05-06 08:59 28.00736 -14.64090 15528 ft 285 kts 223°
2026-05-06 08:59 27.99251 -14.65574 15228 ft 284 kts 227°
2026-05-06 09:00 27.97867 -14.67174 14929 ft 284 kts 229°
2026-05-06 09:00 27.96514 -14.68803 14625 ft 284 kts 229°
2026-05-06 09:00 27.95160 -14.70438 14329 ft 285 kts 229°
2026-05-06 09:00 27.93817 -14.72053 14032 ft 286 kts 229°
2026-05-06 09:01 27.92431 -14.73712 13702 ft 287 kts 229°
2026-05-06 09:01 27.91073 -14.75328 13375 ft 287 kts 229°
2026-05-06 09:01 27.89695 -14.76964 13057 ft 287 kts 229°
2026-05-06 09:01 27.88316 -14.78597 12746 ft 287 kts 229°
2026-05-06 09:02 27.86940 -14.80224 12446 ft 286 kts 228°
2026-05-06 09:02 27.85567 -14.81845 12137 ft 285 kts 228°
2026-05-06 09:02 27.84201 -14.83457 11846 ft 283 kts 228°
2026-05-06 09:02 27.82844 -14.85056 11554 ft 281 kts 228°
2026-05-06 09:03 27.81497 -14.86645 11267 ft 279 kts 228°
2026-05-06 09:03 27.80156 -14.88225 10978 ft 278 kts 228°
2026-05-06 09:03 27.78822 -14.89797 10689 ft 277 kts 228°
2026-05-06 09:03 27.77492 -14.91362 10405 ft 276 kts 228°
2026-05-06 09:04 27.76168 -14.92921 10175 ft 273 kts 229°
2026-05-06 09:04 27.74871 -14.94447 10042 ft 268 kts 229°
2026-05-06 09:04 27.73587 -14.95956 9894 ft 264 kts 228°
2026-05-06 09:04 27.72317 -14.97449 9779 ft 263 kts 229°
2026-05-06 09:05 27.71050 -14.98937 9679 ft 264 kts 228°
2026-05-06 09:05 27.69792 -15.00470 9537 ft 270 kts 235°
2026-05-06 09:05 27.68875 -15.02319 9289 ft 271 kts 246°
2026-05-06 09:05 27.68073 -15.04264 8990 ft 275 kts 246°
2026-05-06 09:06 27.67256 -15.06206 8689 ft 273 kts 245°
2026-05-06 09:06 27.66431 -15.08128 8412 ft 271 kts 245°
2026-05-06 09:06 27.65604 -15.10032 8137 ft 269 kts 246°
2026-05-06 09:06 27.64780 -15.11920 7871 ft 268 kts 245°
2026-05-06 09:07 27.64238 -15.13166 7678 ft 267 kts 246°
2026-05-06 09:07 27.63790 -15.15160 7382 ft 264 kts 272°
2026-05-06 09:07 27.64130 -15.17166 7143 ft 260 kts 289°
2026-05-06 09:07 27.64786 -15.19064 6877 ft 259 kts 292°
2026-05-06 09:08 27.65705 -15.21564 6521 ft 258 kts 292°
2026-05-06 09:08 27.66153 -15.22805 6328 ft 257 kts 292°
2026-05-06 09:08 27.66820 -15.24677 6031 ft 257 kts 291°
2026-05-06 09:08 27.67482 -15.26546 5741 ft 255 kts 291°
2026-05-06 09:09 27.68126 -15.28378 5463 ft 247 kts 292°
2026-05-06 09:09 27.68753 -15.30164 5213 ft 244 kts 292°
2026-05-06 09:09 27.69376 -15.31943 4963 ft 244 kts 292°
2026-05-06 09:09 27.69994 -15.33712 4817 ft 239 kts 292°
2026-05-06 09:10 27.70596 -15.35433 4681 ft 233 kts 292°
2026-05-06 09:10 27.71188 -15.37128 4442 ft 232 kts 292°
2026-05-06 09:10 27.71777 -15.38817 4221 ft 231 kts 292°
2026-05-06 09:10 27.72365 -15.40501 3976 ft 230 kts 293°
2026-05-06 09:11 27.72969 -15.42170 3756 ft 228 kts 300°
2026-05-06 09:11 27.74039 -15.43391 3542 ft 216 kts 333°
2026-05-06 09:11 27.75350 -15.44099 3350 ft 209 kts 338°
2026-05-06 09:11 27.76648 -15.44781 3117 ft 202 kts 337°
2026-05-06 09:12 27.77942 -15.45228 2928 ft 188 kts
2026-05-06 09:12 27.79146 -15.44799 2741 ft 179 kts 21°
2026-05-06 09:12 27.80306 -15.44337 2518 ft 174 kts 18°
2026-05-06 09:12 27.81435 -15.43874 2292 ft 169 kts 20°
2026-05-06 09:13 27.82494 -15.43410 2056 ft 157 kts 21°
2026-05-06 09:13 27.83466 -15.42979 1891 ft 141 kts 20°
2026-05-06 09:13 27.84368 -15.42578 1676 ft 138 kts 20°
2026-05-06 09:13 27.85239 -15.42191 1482 ft 131 kts 20°
2026-05-06 09:14 27.86081 -15.41818 1323 ft 131 kts 20°
2026-05-06 09:14 27.86943 -15.41435 1144 ft 137 kts 20°
2026-05-06 09:14 27.87846 -15.41034 960 ft 141 kts 19°
2026-05-06 09:14 27.88730 -15.40642 784 ft 133 kts 22°
2026-05-06 09:15 27.89580 -15.40264 615 ft 134 kts 20°
2026-05-06 09:15 27.90438 -15.39883 433 ft 130 kts 22°
2026-05-06 09:15 27.91287 -15.39499 293 ft 134 kts 21°
2026-05-06 09:15 27.92159 -15.39113 97 ft 133 kts 22°
2026-05-06 09:16 27.92934 -15.38768 61 ft 102 kts 21°
2026-05-06 09:16 27.93413 -15.38558 61 ft 42 kts 21°
2026-05-06 09:16 27.93648 -15.38455 60 ft 22 kts 21°
2026-05-06 09:16 27.93791 -15.38415 58 ft 21 kts 352°
2026-05-06 09:17 27.93930 -15.38441 67 ft 14 kts 353°
2026-05-06 09:17 27.93990 -15.38452 70 ft 8 kts 335°
2026-05-06 09:17 27.93985 -15.38500 72 ft 8 kts 203°
2026-05-06 09:17 27.93932 -15.38524 70 ft 8 kts 200°
2026-05-06 09:18 27.93879 -15.38547 70 ft 9 kts 200°
2026-05-06 09:18 27.93814 -15.38575 75 ft 11 kts 200°
2026-05-06 09:18 27.93790 -15.38610 77 ft 5 kts 273°
2026-05-06 09:18 27.93798 -15.38644 84 ft 4 kts 290°
2026-05-06 09:19 27.93802 -15.38656 83 ft 1 kts 290°
2026-05-06 09:19 27.93805 -15.38664 82 ft 0 kts 291°